Notices

What’s New in latest Release from January 14th 2021:

·       In Historical Hourly Data Report, users can switch between Local Standard Time (LST) and Universal Time Coordinates (UTC) time.

·       In Historical Hourly Data Report, we have an addition of a new column to display hourly precipitation data for the stations where the data are available, from 2001 onwards.

·       Expanded the Search Options of the Canadian Historical Weather Radar, users now able to select 24 hours (1 image every hour) image viewing duration.

Please note that the IDF dataset is available through this link: Intensity-Duration-Frequency (IDF) Files .

Hourly Data Report for October 31, 2016

CORAL HARBOUR A
NUNAVUT

64°11'36.000" N
83°21'34.000" W
62.20 m
2301002
71915
YZS

Download Data

Hourly Data (October 2016)
Hourly Data Report for October 31, 2016
TIME
LST
Temp Definition
°C
Dew Point Definition
°C
Rel Hum Definition
%
Precip. Amount Definition
mm

Wind Dir Definition
10's deg

Wind Spd Definition
km/h
Visibility Definition
km
Stn Press Definition
kPa
Hmdx Definition


Wind Chill Definition


Weather Definition


00:00 -19.1 -21.4 82   34 29 24.1 99.24   -31 Ice Crystals
01:00 -19.3 -21.9 80   34 18 24.1 99.30   -29 Ice Crystals
02:00 -18.5 -21.0 81   34 26 24.1 99.33   -30 Ice Crystals
03:00 -17.5 -20.0 81   34 26 24.1 99.38   -29 Ice Crystals
04:00 -16.1 -18.4 83   34 26 24.1 99.41   -27 Ice Crystals
05:00 -14.7 -17.1 82   36 22 24.1 99.45   -24 Ice Crystals
06:00 -15.4 -17.7 83   35 24 24.1 99.49   -26 Ice Crystals
07:00 -13.7 -15.6 86   34 28 24.1 99.51   -24 Ice Crystals
08:00 -16.1 -17.9 86   35 21 24.1 99.55   -26 Ice Crystals
09:00 -16.1 -18.1 85   35 23 24.1 99.59   -26 Ice Crystals
10:00 -17.0 -19.4 82   34 27 24.1 99.62   -28 Ice Crystals
11:00 -15.4 -17.8 82   30 19 24.1 99.67   -24 Ice Crystals
12:00 -14.9 -17.3 82   32 10 24.1 99.68   -21 Ice Crystals
13:00 -10.5 -13.0 82   31 20 24.1 99.65   -18 Ice Crystals
14:00 -9.7 -11.5 87   29 17 12.9 99.69   -17 Ice Crystals
15:00 -8.7 -10.6 86   31 15 9.7 99.70   -15 Snow
16:00 -9.3 -11.1 87   30 15 24.1 99.72   -16 Snow
17:00 -10.3 -12.1 87   34 19 24.1 99.76   -18 Snow
18:00 -12.1 -13.8 87   34 20 24.1 99.76   -21 LegendNANA
19:00 -12.2 -13.5 90   29 8 24.1 99.87   -17 Clear
20:00 -13.7 -15.1 89   33 12 24.1 99.91   -20 LegendNANA
21:00 -12.1 -13.6 89   34 10 24.1 99.90   -18 LegendNANA
22:00 -11.4 -12.9 89   34 8 24.1 99.89   -16 Mainly Clear
23:00 -10.6 -12.2 88   36 10 24.1 99.90   -16 Snow

Notes on Data Quality.

Legend

  • E = Estimated
  • M = Missing
  • NA = Not Available*
  • [empty] = Indicates an unobserved value
Date modified: